{"data":{"norad_id":63412,"epoch":"2026-09-20T21:06:18.304992Z","epoch_age_seconds":126081,"freshness":"FRESH","line1":"1 63412U 25065P   26263.87937853  .00016860  00000+0  62081-3 0  9993","line2":"2 63412  42.9997  87.9663 0001638 270.7024  89.3640 15.27579589 82656","mean_motion":15.27579589,"eccentricity":0.0001638,"inclination_deg":42.9997,"raan_deg":87.9663,"arg_perigee_deg":270.7024,"mean_anomaly_deg":89.364,"bstar":0.00062081,"rev_number":8265,"period_min":94.266774076411,"perigee_km":481.92646423767,"apogee_km":484.1741892059,"semimajor_km":6861.1873267218,"source":"CELESTRAK","updated_at":"2026-09-21T09:00:34.980373Z"}}